Grand Rapids, MI

5:21 AM EDT on June 23, 2017 (GMT -0400)
Gerald R. Ford International

Weather History for KGRR - April, 2013

Change the Weather History Date:

Wednesday, April 17, 2013

  Actual Average Record
Temperature  
Mean Temperature 46 °F 49 °F  
Max Temperature 51 °F 59 °F 84 °F (1976)
Min Temperature 41 °F 38 °F 24 °F (1983)
Degree Days  
Heating Degree Days 19 17  
Month to date heating degree days 406 335  
Since 1 July heating degree days 5919 6022  
Cooling Degree Days 0 0  
Month to date cooling degree days 0 0  
Year to date cooling degree days 0 1  
Moisture  
Dew Point 39 °F    
Average Humidity 71    
Maximum Humidity 92    
Minimum Humidity 50    
Precipitation  
Precipitation 1.17 in 0.13 in 2.94 in (1922)
Month to date precipitation 6.24 1.89  
Year to date precipitation 14.24 8.14  
Snow  
Snow 0.00 in 0.00 in 1.30 in (1964)
Month to date snowfall T 1.5  
Since 1 July snowfall 65.3 74.6  
Snow Depth 0.00 in    
Sea Level Pressure  
Sea Level Pressure 30.18 in    
Wind  
Wind Speed 15 mph (ENE)    
Max Wind Speed 39 mph    
Max Gust Speed 47 mph    
Visibility 8 miles    
Events Rain , Thunderstorm    
T = Trace of Precipitation, MM = Missing Value Source: NWS Daily Summary

Daily Weather History Graph

Daily Weather History Graph

Search for Another Location

Airport or City:

Trip Planner

Search our weather history database for the weather conditions in past years. The results will help you decide how hot, cold, wet, or windy it might be!

Date:

Astronomy

Apr. 17, 2013 Rise Set
Actual Time 6:56 AM EDT 8:27 PM EDT
Civil Twilight 6:27 AM EDT 8:56 PM EDT
Nautical Twilight 5:51 AM EDT 9:32 PM EDT
Astronomical Twilight 5:13 AM EDT 10:11 PM EDT
Moon 12:07 PM EDT (4/17) 2:07 AM EDT (4/17)
Length of Visible Light 14h 29m
Length of Day
13h 30m
Waxing Crescent, 42% of the Moon is Illuminated
Apr 17
Waxing Crescent
Apr 18
First Quarter
Apr 25
Full
May 2
Last Quarter
May 9
New

Hourly Weather History & Observations

Time (EDT) Temp. Windchill Dew Point Humidity Pressure Visibility Wind Dir Wind Speed Gust Speed Precip Events Conditions
12:53 AM 44.1 °F 39.0 °F 32.0 °F 63% 30.28 in 10.0 mi NNE 9.2 mph - N/A   Mostly Cloudy
1:53 AM 44.1 °F 39.5 °F 30.9 °F 60% 30.30 in 10.0 mi NE 8.1 mph - N/A   Mostly Cloudy
2:53 AM 44.1 °F 39.0 °F 30.9 °F 60% 30.32 in 10.0 mi NE 9.2 mph - N/A   Overcast
3:53 AM 43.0 °F 37.7 °F 30.9 °F 62% 30.32 in 10.0 mi ENE 9.2 mph - N/A   Overcast
4:53 AM 43.0 °F 37.2 °F 33.1 °F 68% 30.34 in 10.0 mi ENE 10.4 mph - N/A   Mostly Cloudy
5:53 AM 43.0 °F 37.2 °F 34.0 °F 71% 30.33 in 10.0 mi East 10.4 mph - N/A   Mostly Cloudy
6:53 AM 41.0 °F 32.8 °F 30.9 °F 67% 30.33 in 10.0 mi East 16.1 mph - N/A   Mostly Cloudy
7:53 AM 42.1 °F 34.5 °F 32.0 °F 67% 30.33 in 10.0 mi East 15.0 mph - N/A   Mostly Cloudy
8:53 AM 43.0 °F 34.2 °F 32.0 °F 65% 30.34 in 10.0 mi East 20.7 mph - N/A   Mostly Cloudy
9:53 AM 46.4 °F 40.1 °F 33.8 °F 62% 30.30 in 10.0 mi East 15.0 mph - N/A   Mostly Cloudy
10:53 AM 48.9 °F - 33.1 °F 54% 30.31 in 10.0 mi East 18.4 mph - N/A   Mostly Cloudy
11:53 AM 51.1 °F - 34.0 °F 52% 30.31 in 10.0 mi East 16.1 mph 24.2 mph N/A   Overcast
12:53 PM 48.9 °F - 35.1 °F 59% 30.31 in 10.0 mi East 13.8 mph - N/A   Overcast
1:53 PM 50.0 °F - 37.0 °F 61% 30.21 in 10.0 mi East 19.6 mph 29.9 mph 0.00 in   Overcast
2:53 PM 50.0 °F - 39.9 °F 68% 30.22 in 10.0 mi East 10.4 mph - 0.01 in Rain Light Rain
3:37 PM 48.2 °F - 39.2 °F 71% 30.23 in 10.0 mi North 9.2 mph - 0.00 in Rain , Thunderstorm Light Thunderstorms and Rain
3:53 PM 48.9 °F - 39.0 °F 69% 30.19 in 4.0 mi NE 15.0 mph - 0.01 in Rain , Thunderstorm Thunderstorms and Rain
4:02 PM 48.2 °F - 39.2 °F 71% 30.16 in 5.0 mi ENE 13.8 mph - 0.01 in Rain , Thunderstorm Light Thunderstorms and Rain
4:53 PM 46.0 °F 38.3 °F 42.1 °F 86% 30.11 in 7.0 mi ENE 20.7 mph 26.5 mph 0.14 in Rain , Thunderstorm Light Thunderstorms and Rain
5:41 PM 46.4 °F 37.7 °F 42.8 °F 87% 30.25 in 10.0 mi West 26.5 mph 39.1 mph 0.09 in Rain , Thunderstorm Light Thunderstorms and Rain
5:53 PM 45.0 °F 37.6 °F 43.0 °F 93% 30.16 in 1.5 mi NE 17.3 mph 31.1 mph 0.21 in Rain , Thunderstorm Heavy Thunderstorms and Rain
6:05 PM 46.4 °F 40.1 °F 42.8 °F 87% 30.15 in 5.0 mi NE 15.0 mph 19.6 mph 0.09 in Rain , Thunderstorm Thunderstorms and Rain
6:39 PM 44.6 °F 40.2 °F 42.8 °F 93% 30.17 in 5.0 mi NE 8.1 mph - 0.13 in Rain , Thunderstorm Light Thunderstorms and Rain
6:45 PM 44.6 °F 38.1 °F 42.8 °F 93% 30.16 in 4.0 mi ENE 13.8 mph - 0.15 in Rain , Thunderstorm Heavy Thunderstorms and Rain
6:53 PM 45.0 °F 37.6 °F 42.1 °F 90% 30.16 in 2.5 mi East 17.3 mph - 0.19 in Rain , Thunderstorm Heavy Thunderstorms and Rain
7:23 PM 44.6 °F 34.9 °F 42.8 °F 93% 30.05 in 1.5 mi ESE 28.8 mph 39.1 mph 0.14 in Rain , Thunderstorm Heavy Thunderstorms and Rain
7:44 PM 44.6 °F 34.2 °F 42.8 °F 93% 30.01 in 2.5 mi ESE 33.4 mph 40.3 mph 0.26 in Rain , Thunderstorm Thunderstorms and Rain
7:53 PM 45.0 °F 36.0 °F 43.0 °F 93% 30.01 in 2.5 mi SE 25.3 mph 47.2 mph 0.27 in Rain , Thunderstorm Thunderstorms and Rain
8:09 PM 44.6 °F 34.9 °F 42.8 °F 93% 30.01 in 6.0 mi ESE 28.8 mph 42.6 mph 0.08 in Rain , Thunderstorm Thunderstorms and Rain
8:18 PM 44.6 °F 38.1 °F 44.6 °F 100% 30.01 in 6.0 mi NE 13.8 mph 31.1 mph 0.10 in Rain , Thunderstorm Thunderstorms and Rain
8:37 PM 46.4 °F 40.7 °F 44.6 °F 93% 30.08 in 10.0 mi North 12.7 mph 20.7 mph 0.14 in Rain Light Rain
8:53 PM 46.0 °F 39.9 °F 44.1 °F 93% 30.06 in 10.0 mi East 13.8 mph - 0.14 in   Overcast
9:00 PM 46.4 °F 39.8 °F 44.6 °F 93% 30.05 in 10.0 mi East 16.1 mph - N/A   Overcast
9:28 PM 46.4 °F 40.4 °F 44.6 °F 93% 30.03 in 10.0 mi ESE 13.8 mph 24.2 mph 0.00 in Rain Light Rain
9:53 PM 46.9 °F - 43.0 °F 86% 30.01 in 10.0 mi East 18.4 mph - 0.00 in Rain Light Rain
10:53 PM 46.9 °F - 44.1 °F 90% 30.00 in 10.0 mi ENE 13.8 mph - N/A   Overcast
11:53 PM 46.0 °F 41.0 °F 44.1 °F 93% 29.99 in 10.0 mi NE 10.4 mph - 0.01 in Rain Light Rain